Tracking 20715 objects as of 27-May-2020
HD Live streaming from Space Station
objects crossing your sky now

DELTA 1 DEB

Track DELTA 1 DEB now!
10-day predictions


NORAD ID: 12230
Int'l Code: 1978-026BX
Perigee: 626.7 km
Apogee: 726.6 km
Inclination: 97.8 °
Period: 98.1 minutes
Semi major axis: 7047 km
RCS: 0.0615 m2 (small)
Launch date: March 5, 1978
Source: United States (US)
Launch site: AIR FORCE WESTERN TEST RANGE (AFWTR)

Note: This is SATELLITE DEBRIS
aabbcc
Your satellite tracking list
Your tracking list is empty




NASA's NSSDC Master Catalog

Two Line Element Set (TLE):
1 12230U 78026BX  20147.81835111  .00000312  00000-0  61593-4 0  9997
2 12230  97.8378 152.2801 0070830  29.4352 331.0813 14.67362644 74669
Source of the keplerian elements: AFSPC